• en France
  • Liste des pays
  • À 7 jours
  • Température de l'eau
  • Carte satellitaire
  • Carte météo
  • Widgets météo
  • user-avatar
    Se connecter

    Météo par heure à Ibigs

    Ce jour, 16 Octobre, Mardi

    Heure Température Précipitation Vent Pression Humidité
    00:00 +20°C° 0.7 mm 1 m/s 649 mmHg 76%
    01:00 +18°C° 0.7 mm 0 m/s 649 mmHg 77%
    02:00 +18°C° 0.5 mm 0 m/s 649 mmHg 78%
    03:00 +18°C° 0.5 mm 0 m/s 648 mmHg 79%
    04:00 +17°C° 0.5 mm 0 m/s 648 mmHg 80%
    05:00 +18°C° 0.4 mm 0 m/s 648 mmHg 79%
    06:00 +18°C° 0.4 mm 0 m/s 649 mmHg 78%
    07:00 +19°C° 0.4 mm 0 m/s 649 mmHg 77%
    08:00 +22°C° 0.1 mm 1 m/s 650 mmHg 73%
    09:00 +23°C° 0.1 mm 1 m/s 650 mmHg 68%
    10:00 +25°C° 0.1 mm 1 m/s 651 mmHg 63%
    11:00 +26°C° 0.1 mm 1 m/s 650 mmHg 60%
    12:00 +27°C° 0.1 mm 1 m/s 650 mmHg 57%
    13:00 +28°C° 0.1 mm 2 m/s 649 mmHg 54%
    14:00 +27°C° 0.1 mm 1 m/s 649 mmHg 55%
    15:00 +27°C° 0.1 mm 1 m/s 648 mmHg 57%
    16:00 +26°C° 0.1 mm 1 m/s 647 mmHg 58%
    17:00 +25°C° 0.2 mm 1 m/s 647 mmHg 64%
    18:00 +23°C° 0.2 mm 1 m/s 648 mmHg 69%
    19:00 +22°C° 0.2 mm 1 m/s 648 mmHg 74%
    20:00 +21°C° 0.2 mm 1 m/s 648 mmHg 74%
    21:00 +21°C° 0.2 mm 1 m/s 648 mmHg 75%
    22:00 +21°C° 0.2 mm 1 m/s 649 mmHg 75%
    23:00 +20°C° 0.1 mm 1 m/s 649 mmHg 76%

    Demain, 17 Octobre, Mercredi

    Heure Température Précipitation Vent Pression Humidité
    00:00 +20°C° 0.1 mm 1 m/s 648 mmHg 76%
    01:00 +20°C° 0.1 mm 1 m/s 648 mmHg 77%
    02:00 +20°C° 0.1 mm 1 m/s 648 mmHg 77%
    03:00 +19°C° 0.1 mm 1 m/s 647 mmHg 77%
    04:00 +19°C° 0.1 mm 1 m/s 647 mmHg 77%
    05:00 +20°C° 0 mm 1 m/s 648 mmHg 76%
    06:00 +18°C° 0 mm 0 m/s 648 mmHg 75%
    07:00 +19°C° 0 mm 0 m/s 649 mmHg 73%
    08:00 +21°C° 0 mm 0 m/s 649 mmHg 66%
    09:00 +25°C° 0 mm 1 m/s 650 mmHg 59%
    10:00 +26°C° 0 mm 1 m/s 651 mmHg 51%
    11:00 +27°C° 0 mm 1 m/s 650 mmHg 49%
    12:00 +28°C° 0 mm 1 m/s 649 mmHg 46%
    13:00 +29°C° 0 mm 1 m/s 649 mmHg 44%
    14:00 +29°C° 0 mm 1 m/s 648 mmHg 44%
    15:00 +28°C° 0 mm 1 m/s 648 mmHg 44%
    16:00 +28°C° 0 mm 1 m/s 648 mmHg 45%
    17:00 +26°C° 0 mm 1 m/s 648 mmHg 51%
    18:00 +24°C° 0 mm 1 m/s 647 mmHg 57%
    19:00 +22°C° 0 mm 1 m/s 647 mmHg 63%
    20:00 +21°C° 0.1 mm 1 m/s 648 mmHg 64%
    21:00 +21°C° 0.1 mm 1 m/s 648 mmHg 64%
    22:00 +20°C° 0.1 mm 1 m/s 649 mmHg 65%
    23:00 +20°C° 0.1 mm 1 m/s 648 mmHg 65%

    Après-demain, 18 Octobre, Jeudi

    Heure Température Précipitation Vent Pression Humidité
    00:00 +20°C° 0.1 mm 1 m/s 648 mmHg 65%
    01:00 +20°C° 0.1 mm 1 m/s 648 mmHg 66%
    02:00 +19°C° 0 mm 1 m/s 647 mmHg 66%
    03:00 +19°C° 0 mm 1 m/s 647 mmHg 66%
    04:00 +19°C° 0 mm 1 m/s 647 mmHg 66%
    05:00 +20°C° 0 mm 1 m/s 647 mmHg 63%
    06:00 +21°C° 0 mm 1 m/s 648 mmHg 61%
    07:00 +21°C° 0 mm 1 m/s 648 mmHg 58%
    08:00 +24°C° 0 mm 1 m/s 649 mmHg 52%
    09:00 +26°C° 0 mm 1 m/s 650 mmHg 46%
    10:00 +28°C° 0 mm 1 m/s 651 mmHg 40%
    11:00 +29°C° 0 mm 2 m/s 650 mmHg 39%
    12:00 +29°C° 0 mm 2 m/s 650 mmHg 38%
    13:00 +30°C° 0 mm 2 m/s 649 mmHg 37%
    14:00 +29°C° 0 mm 2 m/s 648 mmHg 40%
    15:00 +28°C° 0 mm 1 m/s 648 mmHg 44%
    16:00 +27°C° 0 mm 1 m/s 647 mmHg 47%
    17:00 +26°C° 0 mm 1 m/s 647 mmHg 53%
    18:00 +24°C° 0 mm 1 m/s 647 mmHg 59%
    19:00 +22°C° 0 mm 1 m/s 648 mmHg 65%
    20:00 +22°C° 0.1 mm 1 m/s 648 mmHg 65%
    21:00 +22°C° 0.1 mm 1 m/s 648 mmHg 66%
    22:00 +21°C° 0.1 mm 1 m/s 649 mmHg 66%
    23:00 +21°C° 0.1 mm 1 m/s 649 mmHg 69%

    19 Octobre, Vendredi

    Heure Température Précipitation Vent Pression Humidité
    00:00 +21°C° 0.1 mm 1 m/s 648 mmHg 71%
    01:00 +20°C° 0.1 mm 1 m/s 648 mmHg 73%
    02:00 +18°C° 0.2 mm 0 m/s 648 mmHg 75%
    03:00 +18°C° 0.2 mm 0 m/s 648 mmHg 77%
    04:00 +17°C° 0.2 mm 0 m/s 647 mmHg 79%
    05:00 +18°C° 0.1 mm 0 m/s 648 mmHg 78%
    06:00 +18°C° 0.1 mm 0 m/s 649 mmHg 77%
    07:00 +19°C° 0.1 mm 0 m/s 649 mmHg 75%
    08:00 +22°C° 0.1 mm 1 m/s 650 mmHg 71%
    09:00 +24°C° 0.1 mm 1 m/s 650 mmHg 66%
    10:00 +25°C° 0.1 mm 1 m/s 651 mmHg 61%
    11:00 +26°C° 0.1 mm 2 m/s 650 mmHg 59%
    12:00 +26°C° 0.1 mm 2 m/s 650 mmHg 57%
    13:00 +27°C° 0.1 mm 2 m/s 649 mmHg 55%
    14:00 +26°C° 0.2 mm 2 m/s 648 mmHg 57%
    15:00 +26°C° 0.2 mm 2 m/s 648 mmHg 59%
    16:00 +25°C° 0.2 mm 2 m/s 648 mmHg 61%
    17:00 +24°C° 0.3 mm 1 m/s 648 mmHg 66%
    18:00 +22°C° 0.3 mm 1 m/s 648 mmHg 71%
    19:00 +21°C° 0.3 mm 1 m/s 648 mmHg 76%
    20:00 +21°C° 0.5 mm 1 m/s 649 mmHg 76%
    21:00 +21°C° 0.5 mm 1 m/s 649 mmHg 77%
    22:00 +20°C° 0.5 mm 1 m/s 649 mmHg 78%
    23:00 +20°C° 0.5 mm 1 m/s 649 mmHg 79%

    20 Octobre, Samedi

    Heure Température Précipitation Vent Pression Humidité
    00:00 +20°C° 0.5 mm 1 m/s 648 mmHg 80%
    01:00 +17°C° 0.5 mm 0 m/s 648 mmHg 81%
    02:00 +17°C° 0.4 mm 0 m/s 648 mmHg 82%
    03:00 +17°C° 0.4 mm 0 m/s 647 mmHg 83%
    04:00 +17°C° 0.4 mm 0 m/s 647 mmHg 84%
    05:00 +17°C° 0.4 mm 0 m/s 648 mmHg 83%
    06:00 +19°C° 0.4 mm 1 m/s 648 mmHg 82%
    07:00 +20°C° 0.4 mm 1 m/s 649 mmHg 82%
    08:00 +21°C° 0.4 mm 1 m/s 649 mmHg 78%
    09:00 +22°C° 0.4 mm 1 m/s 650 mmHg 75%
    10:00 +23°C° 0.4 mm 1 m/s 650 mmHg 71%
    11:00 +24°C° 0.2 mm 1 m/s 650 mmHg 68%
    12:00 +25°C° 0.2 mm 1 m/s 649 mmHg 66%
    13:00 +25°C° 0.2 mm 1 m/s 649 mmHg 63%
    14:00 +25°C° 0.2 mm 1 m/s 648 mmHg 63%
    15:00 +25°C° 0.2 mm 1 m/s 648 mmHg 63%
    16:00 +25°C° 0.2 mm 1 m/s 647 mmHg 64%
    17:00 +23°C° 0.1 mm 1 m/s 647 mmHg 68%
    18:00 +22°C° 0.1 mm 1 m/s 648 mmHg 73%
    19:00 +21°C° 0.1 mm 1 m/s 648 mmHg 77%
    20:00 +21°C° 0 mm 1 m/s 648 mmHg 78%
    21:00 +20°C° 0 mm 1 m/s 648 mmHg 79%
    22:00 +20°C° 0 mm 1 m/s 649 mmHg 79%
    23:00 +20°C° 0 mm 1 m/s 648 mmHg 80%

    21 Octobre, Dimanche

    Heure Température Précipitation Vent Pression Humidité
    00:00 +19°C° 0 mm 1 m/s 648 mmHg 80%
    01:00 +19°C° 0 mm 1 m/s 647 mmHg 80%
    02:00 +19°C° 0 mm 1 m/s 647 mmHg 80%
    03:00 +18°C° 0 mm 1 m/s 647 mmHg 79%
    04:00 +18°C° 0 mm 1 m/s 647 mmHg 78%
    05:00 +19°C° 0 mm 1 m/s 648 mmHg 75%
    06:00 +19°C° 0 mm 1 m/s 648 mmHg 71%
    07:00 +20°C° 0 mm 1 m/s 649 mmHg 68%
    08:00 +22°C° 0 mm 1 m/s 649 mmHg 62%
    09:00 +24°C° 0 mm 1 m/s 650 mmHg 55%
    10:00 +26°C° 0 mm 1 m/s 650 mmHg 49%
    11:00 +27°C° 0 mm 1 m/s 649 mmHg 46%
    12:00 +28°C° 0 mm 2 m/s 649 mmHg 44%
    13:00 +29°C° 0 mm 2 m/s 648 mmHg 42%
    14:00 +29°C° 0 mm 2 m/s 648 mmHg 44%
    15:00 +28°C° 0 mm 2 m/s 647 mmHg 47%
    16:00 +28°C° 0 mm 2 m/s 647 mmHg 49%
    17:00 +26°C° 0.3 mm 2 m/s 647 mmHg 58%
    18:00 +23°C° 0.3 mm 1 m/s 647 mmHg 68%
    19:00 +21°C° 0.3 mm 1 m/s 647 mmHg 77%
    20:00 +21°C° 0.2 mm 1 m/s 647 mmHg 77%
    21:00 +21°C° 0.2 mm 1 m/s 648 mmHg 77%
    22:00 +20°C° 0.2 mm 1 m/s 648 mmHg 78%
    23:00 +20°C° 0.1 mm 1 m/s 648 mmHg 78%
    Voir plus